PST,Max TemperatureF,Mean TemperatureF,Min TemperatureF,Max Dew PointF,MeanDew PointF,Min DewpointF,Max Humidity, Mean Humidity, Min Humidity, Max Sea Level PressureIn, Mean Sea Level PressureIn, Min Sea Level PressureIn, Max VisibilityMiles, Mean VisibilityMiles, Min VisibilityMiles, Max Wind SpeedMPH, Mean Wind SpeedMPH, Max Gust SpeedMPH,PrecipitationIn, CloudCover, Events, WindDirDegrees
2013-1-1,50,34,17,21,13,6,80,50,20,30.36,30.30,30.24,10,10,10,21,6,24,0.00,4,,63
2013-1-2,54,33,12,12,7,3,64,40,16,30.32,30.26,30.19,10,10,10,15,5,18,0.00,0,,349
2013-1-3,57,35,13,13,6,1,61,37,12,30.36,30.29,30.23,10,10,10,23,6,33,0.00,0,,8
2013-1-4,54,34,13,8,2,-1,53,32,11,30.43,30.35,30.28,10,10,10,22,2,170,0.00,0,,287
2013-1-5,54,34,13,7,2,-3,49,31,12,30.44,30.32,30.19,10,10,10,8,2,,0.00,0,,272
2013-1-6,51,40,29,34,30,3,76,52,27,30.17,30.10,30.04,10,10,10,24,11,31,T,3,Rain,250
2013-1-7,58,42,26,30,22,15,85,52,19,30.18,30.13,30.08,10,10,10,10,4,,0.00,0,,270
2013-1-8,66,44,22,27,20,11,62,43,24,30.27,30.21,30.15,10,10,10,10,3,13,0.00,0,,14
2013-1-9,63,45,27,35,26,15,63,45,27,30.25,30.12,29.92,10,10,10,26,5,31,0.00,0,,275
2013-1-10,49,41,33,37,24,15,75,54,33,30.08,29.96,29.89,10,10,6,39,25,55,T,3,,282
2013-1-11,43,36,29,22,19,16,63,52,40,30.19,30.13,30.06,10,10,10,28,14,36,0.00,2,,275
2013-1-12,44,31,17,17,12,6,74,48,22,30.23,30.16,30.10,10,10,10,12,3,14,0.00,1,,309
2013-1-13,46,27,8,16,8,0,73,47,21,30.27,30.19,30.09,10,10,10,20,4,,0.00,0,,341
2013-1-14,40,24,8,-1,-4,-9,55,35,15,30.46,30.40,30.29,10,10,10,14,6,17,0.00,0,,24
2013-1-15,50,33,15,8,1,-7,47,32,16,30.60,30.51,30.45,10,10,10,17,6,22,0.00,0,,348
2013-1-16,58,38,18,18,10,2,54,38,21,30.55,30.45,30.37,10,10,10,15,6,20,0.00,0,,326
2013-1-17,64,40,15,13,7,1,56,34,11,30.45,30.36,30.27,10,10,10,17,6,30,0.00,0,,355
2013-1-18,64,41,17,16,4,-3,47,29,11,30.39,30.32,30.23,10,10,10,15,5,,0.00,0,,321
2013-1-19,65,41,17,7,2,-5,43,27,10,30.43,30.33,30.26,10,10,10,13,4,15,0.00,0,,351
2013-1-20,65,40,15,6,1,-5,40,25,9,30.37,30.29,30.19,10,10,10,12,4,,0.00,0,,327
2013-1-21,68,43,17,5,0,-5,39,23,7,30.32,30.25,30.18,10,10,10,14,4,17,0.00,0,,328
2013-1-22,66,41,16,5,1,-7,36,23,9,30.31,30.23,30.16,10,10,10,9,3,10,0.00,0,,283
2013-1-23,65,49,32,31,9,2,28,20,11,30.24,30.17,30.11,10,10,10,9,2,13,0.00,3,,28
2013-1-24,56,51,46,47,45,31,93,69,44,30.25,30.20,30.13,10,10,9,10,2,,0.18,8,Rain,308
2013-1-25,53,51,48,49,47,45,89,80,71,30.24,30.12,30.04,10,7,2,7,2,13,0.16,8,Rain,264
2013-1-26,63,57,50,50,46,39,93,73,52,30.03,29.96,29.90,10,8,3,29,13,33,0.06,5,Rain,268
2013-1-27,51,45,39,43,31,24,83,63,42,30.03,29.99,29.95,10,10,10,35,21,37,0.00,4,,279
2013-1-28,49,43,36,25,23,21,59,47,34,30.21,30.13,30.04,10,10,10,28,15,35,0.00,1,,288
2013-1-29,58,45,32,27,27,25,70,50,30,30.30,30.20,30.12,10,10,10,31,14,35,0.00,0,,279
2013-1-30,64,46,28,31,27,23,78,51,24,30.42,30.34,30.28,10,10,10,8,2,12,0.00,0,,286
2013-1-31,68,49,29,31,28,24,85,55,24,30.36,30.28,30.21,10,10,10,12,3,18,0.00,0,,305